Flag for Mexico Weather past 2 weeks in Mexicali, Baja California, Mexico

Now
91 °F

Sunny.


Feels Like: 87 °F
Forecast: 55 / 82 °F
Wind: 7 mph from North

Location: Imperial County Airport

Current Time: Apr 1, 2015 at 6:03:32 PM

Latest Report: Apr 1, 2015 at 4:53 PM


Visibility: 10 mi

Pressure: 29.74 "Hg

Humidity: 9%

Dew point: 24 °F

Location of MexicaliLocation

Historic Weather in Mexicali — Graph

°F

Mexicali temperature yesterday

Maximum temperature yesterday: 94 °F (at 3:53 PM)
Minimum temperature yesterday: 63 °F (at 5:53 AM)
Average temperature yesterday: 78 °F

Past Weeks' High & Low Weather Summary

 TemperatureHumidityPressure
High98 °F (Mar 28, 3:53 PM)81% (Mar 20, 6:53 AM)30.09 "Hg (Mar 20, 6:53 AM)
Low56 °F (Mar 20, 6:53 AM)7% (Mar 23, 11:53 AM)29.74 "Hg (Apr 1, 4:53 PM)
Average75 °F33%29.93 "Hg
* Reported Mar 17 4:53 PM — Apr 1 4:53 PM, Mexicali, Weather by CustomWeather, © 2015

Note: Actual official high and low records may vary slightly from our data, if they occured in-between our weather recording intervals... More about our weather records

Advertising

Mexicali weather history for previous 24 hours

 ConditionsComfort  
Time TempWeatherWind HumidityBarometerVisibility
4:53 PM
Wed, Apr 1
91 °FSunny.7 mph9%29.74 "Hg10 mi
3:53 PM91 °FSunny.8 mph8%29.76 "Hg10 mi
2:53 PM89 °FSunny.8 mph10%29.78 "Hg10 mi
1:53 PM87 °FSunny.7 mph11%29.81 "Hg10 mi
12:53 PM87 °FSunny.7 mph13%29.84 "Hg10 mi
11:53 AM84 °FSunny.6 mph15%29.86 "Hg10 mi
10:53 AM83 °FSunny.9 mph15%29.88 "Hg10 mi
9:53 AM80 °FSunny.9 mph23%29.87 "Hg10 mi
8:53 AM76 °FSunny.7 mph27%29.86 "Hg10 mi
7:53 AM69 °FSunny.9 mph30%29.84 "Hg10 mi
6:53 AM61 °FClear.6 mph36%29.81 "Hg10 mi
5:53 AM63 °FClear.9 mph31%29.79 "Hg10 mi
4:53 AM67 °FClear.10 mph25%29.78 "Hg10 mi
3:53 AM69 °FClear.13 mph24%29.80 "Hg10 mi
2:53 AM69 °FClear.8 mph22%29.81 "Hg10 mi
1:53 AM69 °FClear.8 mph21%29.81 "Hg10 mi
12:53 AM73 °FClear.6 mph15%29.80 "Hg10 mi
11:53 PM
Tue, Mar 31
73 °FClear.16 mph19%29.79 "Hg10 mi
10:53 PM73 °FClear.9 mph19%29.80 "Hg10 mi
9:53 PM76 °FClear.15 mph18%29.80 "Hg10 mi
8:53 PM77 °FClear.15 mph18%29.78 "Hg10 mi
7:53 PM80 °FSunny.18 mph21%29.77 "Hg10 mi
6:53 PM84 °FSunny.16 mph17%29.76 "Hg10 mi
Weather by CustomWeather, © 2015

See weather overviewHow to use our weather pages